Lapse_Rate
5.4 5.2 5.2 5.3 5.5 5.7 5.7 5.4 5.5 5.7 5.5 5.5 5.4 5.3 5.4 5.5 5.6 5.7 5.8 5.7 5.8 5.9 5.8 5.6 5.6 5.5 5.7 5.7 5.4 5.4 5.7 5.7 5.6 5.4 5.4 5.4 5.4 5.5 5.5 5.2 5.2 5.4 5.5
5.2 5.1 5.4 5.7 6.0 5.8 5.8 5.7 5.7 5.5 5.5 5.5 5.6 5.6 5.7 5.7 5.8 5.8 5.9 5.8 5.9 5.9 5.8 5.7 5.7 5.6 5.7 5.7 5.5 5.4 5.7 5.7 5.6 5.4 5.4 5.4 5.5 5.7 5.7 5.5 5.1 5.2 5.1
5.5 5.4 5.7 5.5 5.8 5.8 5.7 5.7 5.5 5.4 5.8 5.8 5.7 5.7 5.8 5.9 5.9 5.8 5.7 5.7 5.8 5.9 5.8 5.8 5.7 5.7 5.7 5.9 5.8 5.7 5.7 5.8 5.8 5.7 5.4 5.5 5.6 5.7 5.6 5.6 5.3 5.2 5.4
5.5 5.6 5.5 5.7 5.8 5.6 5.5 5.5 5.5 5.5 5.7 5.7 5.9 5.8 5.9 6.0 5.8 5.8 5.8 5.8 5.7 5.8 5.7 5.7 5.7 5.8 5.7 5.8 6.1 6.1 5.9 5.9 5.9 5.9 5.4 5.4 5.4 5.7 5.7 5.7 5.7 5.3 5.7
5.7 5.7 5.7 5.9 5.8 5.9 5.8 5.8 5.8 5.8 5.8 6.0 6.0 5.9 6.0 5.9 6.1 6.0 6.0 6.0 5.9 5.7 5.7 5.7 5.9 5.9 6.1 6.1 6.1 6.3 6.1 5.9 6.0 6.0 5.3 5.9 5.6 5.9 5.8 5.8 5.8 5.5 5.4
6.2 6.1 6.2 6.2 6.1 6.1 6.1 6.0 5.9 6.0 6.0 6.0 6.1 6.2 6.2 6.3 6.3 6.2 6.2 6.1 6.0 5.9 5.8 5.9 6.0 6.2 6.3 6.4 6.3 6.3 6.2 6.0 5.8 5.6 5.5 6.0 5.8 5.9 5.8 5.6 5.9 5.8 5.6
6.5 6.4 6.4 6.3 6.3 6.3 6.3 6.3 6.2 6.2 6.3 6.5 6.5 6.5 6.5 6.5 6.5 6.4 6.5 6.4 6.1 6.1 6.2 6.2 6.2 6.3 6.4 6.6 6.5 6.3 6.3 6.3 6.2 5.8 5.3 5.8 6.0 6.0 5.9 5.7 5.7 5.8 5.8
6.7 6.7 6.5 6.4 6.3 6.4 6.5 6.5 6.5 6.5 6.6 6.7 6.8 6.8 6.8 6.8 6.7 6.9 6.8 6.7 6.7 6.5 6.3 6.5 6.5 6.4 6.3 6.5 6.6 6.5 6.4 6.4 6.2 6.1 5.6 5.6 5.9 6.2 5.7 6.1 5.9 5.7 5.7
6.6 6.7 6.8 6.8 6.7 6.6 6.6 6.6 6.6 6.6 6.7 6.9 7.1 7.0 7.0 6.9 6.8 6.9 6.9 6.9 7.0 6.8 6.4 6.4 6.4 6.4 6.3 6.4 6.5 6.5 6.5 6.5 6.2 6.0 5.9 5.6 5.7 5.9 6.0 5.9 6.1 5.9 5.7
6.7 6.8 6.8 6.9 6.9 6.8 6.8 6.6 6.6 6.8 7.0 6.9 7.0 7.0 6.9 6.7 6.7 6.9 7.0 6.7 6.8 6.8 6.7 6.4 6.5 6.4 6.3 6.4 6.6 6.6 6.6 6.5 6.3 6.0 6.0 5.8 5.7 5.9 6.1 6.0 5.9 6.0 5.7
6.9 6.9 6.9 7.0 6.9 7.0 6.9 6.8 6.8 6.8 6.8 6.7 7.0 7.1 6.8 6.7 6.7 6.8 6.6 6.8 6.9 6.8 6.8 6.6 6.6 6.4 6.3 6.3 6.4 6.6 6.7 6.8 6.6 6.4 6.1 5.9 5.9 6.0 6.1 6.1 6.0 6.0 6.0
7.1 7.1 7.0 7.0 7.1 7.0 6.9 6.9 7.0 6.9 6.8 6.9 6.9 6.9 6.8 6.7 6.6 6.4 6.7 6.7 6.4 6.3 6.4 6.6 6.8 6.6 6.3 6.2 6.2 6.1 6.4 6.8 6.6 6.4 6.3 6.1 6.0 6.0 6.2 6.3 6.1 6.0 6.0
7.3 7.4 7.6 7.3 7.1 6.8 6.6 6.5 6.5 6.5 6.5 6.5 6.6 6.7 6.6 6.5 6.4 6.4 6.4 6.3 6.4 6.4 6.3 6.7 6.6 6.5 6.3 6.2 6.3 6.2 6.1 6.5 6.8 6.4 6.2 6.2 6.1 5.8 6.1 6.1 6.2 6.2 6.0
7.8 7.6 7.3 7.0 6.5 6.4 6.3 6.3 6.1 6.3 6.6 6.4 6.5 6.7 6.6 6.4 6.4 6.2 6.2 6.3 6.4 6.1 6.1 6.4 6.5 6.5 6.4 6.4 6.3 6.1 6.3 6.3 6.5 6.4 6.2 6.2 6.3 6.3 6.2 6.0 6.2 6.3 6.3
7.8 7.6 7.3 6.5 6.6 6.3 6.5 6.1 6.0 6.2 6.5 6.4 6.3 6.4 6.5 6.3 6.3 6.0 6.0 6.2 6.3 6.3 6.1 6.1 6.3 6.3 6.2 6.2 6.2 6.3 6.2 6.0 6.2 6.2 6.1 6.2 6.4 6.3 6.2 6.2 6.1 6.2 6.5
7.8 7.6 7.5 6.9 6.6 6.6 6.5 6.2 6.3 6.4 6.6 6.5 6.4 6.4 6.3 6.3 6.2 6.1 5.9 5.7 5.8 5.8 5.7 5.8 6.0 6.0 6.0 6.0 6.0 6.0 6.2 6.4 5.9 6.1 6.1 6.0 6.2 6.3 6.2 6.2 6.3 6.2 6.2
7.6 7.4 7.1 7.0 6.7 6.3 6.4 6.4 6.5 6.7 6.4 6.3 6.1 5.9 6.0 6.2 6.1 6.0 5.8 5.7 5.7 5.5 5.4 5.5 5.6 5.8 5.9 5.8 5.8 5.8 6.0 6.1 6.3 6.1 6.1 6.1 5.9 6.1 6.2 6.1 6.2 6.2 6.2
7.5 7.3 6.9 6.7 6.5 6.5 6.4 6.4 6.2 6.2 6.1 5.9 5.9 5.9 5.8 6.1 6.0 6.0 5.8 5.7 5.7 5.5 5.4 5.4 5.5 5.5 5.4 5.4 5.7 5.7 5.8 6.0 6.1 6.3 6.1 6.1 5.9 5.8 5.9 6.1 6.2 6.1 6.0
7.4 7.2 6.9 6.6 6.4 6.4 6.5 6.5 6.4 6.3 6.1 6.0 5.9 5.9 5.9 5.9 5.8 5.8 5.8 5.8 5.6 5.4 5.4 5.5 5.5 5.7 5.7 5.7 5.9 5.9 5.9 5.9 5.9 6.1 6.1 6.0 6.2 6.1 5.8 5.8 6.1 6.1 6.1
7.2 7.2 7.0 6.8 6.4 6.2 6.2 6.2 6.1 6.0 5.9 5.9 5.9 6.0 5.9 5.9 5.8 6.0 6.0 5.8 5.7 5.7 5.6 5.7 5.7 5.9 5.9 6.1 6.1 6.0 5.9 5.8 5.9 5.9 6.0 6.1 6.0 6.1 6.2 6.0 5.6 5.8 6.0
7.2 6.9 6.8 6.7 6.5 6.4 6.4 6.3 6.3 6.3 6.2 6.2 6.2 6.2 6.2 5.9 6.0 5.9 5.8 5.8 5.9 6.0 5.9 5.9 5.8 5.8 5.7 6.0 6.1 6.1 5.9 5.8 5.8 5.8 6.0 6.0 6.1 6.0 6.0 6.2 6.0 5.8 5.9
7.1 7.0 7.0 6.9 6.8 6.5 6.3 6.4 6.6 6.7 6.8 6.7 6.6 6.5 6.2 6.2 6.2 6.2 6.2 6.1 6.0 6.1 6.2 6.2 6.2 6.1 5.7 5.5 5.6 6.1 6.3 5.6 5.7 5.6 5.8 6.0 6.0 6.1 6.0 5.8 5.9 5.9 5.8
7.2 7.1 7.3 7.1 6.8 6.6 6.4 6.4 6.5 6.6 6.7 6.7 6.6 6.6 6.7 6.6 6.6 6.6 6.7 6.8 6.7 6.6 6.4 6.2 6.1 5.9 5.8 5.7 5.4 5.6 6.0 6.2 6.1 5.7 5.8 5.9 6.0 5.9 5.8 5.9 6.1 6.2 6.2
7.6 7.6 7.4 7.0 6.7 6.6 6.6 6.4 6.4 6.6 6.6 6.8 6.9 6.9 7.0 6.9 6.8 6.7 6.6 6.8 6.8 6.6 6.4 6.3 6.1 5.9 5.8 5.7 5.6 5.7 5.6 5.6 6.0 6.4 5.6 5.6 5.7 5.9 6.0 5.9 6.0 6.1 6.1
7.6 7.5 7.3 7.0 6.8 6.8 6.7 6.6 6.5 6.4 6.3 6.4 6.6 6.8 6.8 6.8 6.7 6.6 6.6 6.4 6.3 6.2 6.1 6.0 5.9 5.9 5.9 5.8 5.6 5.5 5.4 5.4 5.6 5.8 6.2 6.1 5.9 5.7 5.8 6.0 5.9 6.0 6.1
7.5 7.3 7.2 7.0 6.8 6.6 6.5 6.7 6.6 6.4 6.3 6.4 6.6 6.5 6.5 6.4 6.3 6.1 6.1 6.2 6.1 5.9 5.7 5.8 5.8 5.8 5.8 5.6 5.5 5.6 5.6 5.7 5.7 5.7 5.9 5.9 6.3 6.5 6.2 5.9 5.9 5.9 5.9
Wind_Speed
4 10 16 21 21 23 22 21 22 21 21 22 22 22 21 21 20 17 15 15 12 12 14 15 14 13 12 12 11 11 11 9 9 9 11 11 10 9 7 10 9 9 10
7 14 17 22 23 22 23 22 22 21 21 22 22 21 19 19 19 15 15 15 13 12 12 13 11 11 10 9 9 8 8 6 6 6 8 9 8 4 5 10 9 8 11
9 13 17 19 21 21 21 22 21 20 21 21 21 20 19 18 18 15 14 14 13 12 12 11 10 9 8 6 6 6 6 6 5 5 6 5 6 6 10 10 11 11 13
12 14 14 19 21 21 21 21 21 21 20 18 19 18 17 18 17 15 13 12 12 11 11 9 8 8 6 4 4 5 5 6 4 2 2 8 5 6 8 9 11 12 12
11 14 17 18 19 21 21 21 21 20 20 19 18 18 18 16 16 14 13 12 12 10 9 7 6 6 5 3 2 3 3 6 6 4 3 3 5 7 8 9 10 11 13
11 13 17 18 19 20 20 21 20 19 18 18 17 17 17 16 15 14 12 11 10 9 7 6 4 4 4 3 1 1 4 5 4 1 5 5 7 9 8 10 10 13 11
9 14 17 19 20 21 21 20 19 18 17 16 15 16 16 15 14 13 12 10 9 7 6 4 2 2 3 3 3 1 4 6 4 2 7 7 10 10 7 10 11 13 12
11 13 16 18 20 20 20 19 17 17 16 14 14 14 13 13 11 9 8 8 7 5 4 2 3 4 4 4 4 3 4 4 2 3 9 9 13 11 10 10 11 12 13
13 10 13 16 18 19 19 19 18 16 16 15 14 13 13 11 9 8 7 6 6 5 3 3 3 6 6 6 5 5 4 4 4 4 7 9 14 12 11 12 12 11 15
8 9 9 14 15 16 17 19 18 17 16 15 14 14 12 10 7 6 5 6 6 5 4 4 4 5 7 6 5 6 6 5 5 7 7 9 17 15 14 13 14 13 15
9 7 9 9 13 15 15 17 19 18 16 15 13 11 9 7 7 2 4 5 5 5 7 5 6 5 7 6 5 7 8 5 6 9 10 13 18 17 15 15 15 15 15
10 9 8 8 9 13 14 14 15 14 15 14 12 10 7 5 7 2 5 5 7 7 7 7 6 7 4 5 5 7 6 8 7 8 11 17 19 18 17 17 16 16 16
14 10 10 8 11 11 7 10 10 11 13 13 13 12 8 6 7 5 3 2 3 5 4 6 4 6 6 6 8 8 10 10 9 11 13 17 19 19 18 18 18 18 18
12 11 11 9 10 12 12 10 10 9 11 10 12 12 9 8 6 7 5 3 1 3 1 0 2 5 5 4 10 10 11 11 8 9 14 16 18 19 20 20 20 20 19
12 10 11 11 9 9 7 9 9 9 10 12 13 15 13 8 4 7 6 3 1 1 2 4 2 4 5 7 8 7 9 10 13 8 14 17 20 22 22 22 23 23 21
11 12 11 12 9 8 5 7 7 9 11 12 13 13 15 12 9 7 5 4 4 3 3 3 4 4 4 6 5 6 8 10 10 11 12 15 20 22 22 23 23 24 24
10 10 9 9 9 7 7 8 7 8 6 4 9 11 9 12 13 9 4 3 7 5 5 5 6 7 4 5 5 6 7 9 8 9 11 13 16 21 22 24 24 24 25
9 11 9 9 9 7 6 6 5 4 6 5 7 9 7 9 13 9 2 3 8 6 4 3 3 3 4 3 4 4 4 7 8 9 12 11 14 14 20 25 25 26 27
13 12 11 8 8 8 6 5 6 6 5 7 6 5 5 7 10 10 6 7 8 4 3 2 2 3 3 4 5 4 4 4 5 7 8 10 13 17 16 19 28 28 28
9 12 10 6 7 7 4 3 2 3 3 6 5 3 2 2 7 7 5 3 4 3 3 3 4 3 4 3 5 5 5 5 5 5 6 11 11 13 15 16 17 21 29
9 9 8 8 7 6 3 3 2 3 2 3 5 6 6 5 6 5 3 2 2 2 4 4 2 4 2 2 2 3 4 6 5 4 4 4 6 10 13 15 17 18 16
12 10 8 8 8 7 5 3 3 3 3 2 3 4 8 7 6 4 3 3 2 2 2 1 2 1 1 1 1 1 3 4 3 4 3 4 6 6 6 9 12 17 20
12 10 9 9 11 8 7 3 2 1 1 1 0 3 4 8 7 6 6 4 2 2 1 0 1 2 1 1 1 1 2 2 3 3 4 4 5 4 3 7 9 13 10
12 10 11 10 10 9 8 6 5 4 3 3 3 3 4 6 7 6 5 4 4 2 2 1 1 2 2 1 1 2 2 3 2 4 2 4 5 6 6 4 5 9 11
13 13 12 12 9 8 7 7 5 4 2 3 3 6 3 3 5 5 4 5 3 2 1 2 1 0 1 2 1 1 1 1 1 1 3 4 4 3 4 4 5 8 13
14 13 11 12 8 8 8 8 9 8 6 5 3 4 3 1 2 6 8 5 3 2 1 2 2 1 2 2 2 2 2 1 2 1 2 4 4 4 4 5 5 5 10
Wind_Direction
142 153 128 131 135 132 130 127 124 121 124 121 119 118 113 110 113 112 111 110 104 100 101 97 92 89 89 86 82 86 92 85 99 101 106 109 109 110 108 96 108 109 115
133 138 131 126 125 125 125 123 119 122 121 121 124 117 113 114 110 106 105 109 108 97 95 96 103 101 92 88 89 93 97 100 101 114 121 124 116 119 168 111 108 103 128
122 121 118 118 118 119 119 122 122 119 118 122 119 115 115 113 108 106 106 107 108 111 106 107 110 101 97 90 80 74 92 101 115 127 134 131 126 111 109 120 115 112 108
131 121 124 124 123 126 125 124 125 123 119 120 119 123 123 118 119 119 119 117 114 109 108 111 108 107 110 118 93 78 77 94 107 119 89 165 132 126 118 123 123 121 119
125 122 131 123 127 130 129 129 129 126 125 126 130 134 126 128 127 133 132 126 119 116 114 116 115 118 122 124 119 90 80 113 124 118 107 163 128 131 131 138 127 134 126
133 132 128 129 132 133 134 132 133 128 132 135 136 132 134 137 144 142 135 127 119 122 129 138 144 141 150 154 183 169 106 141 149 171 143 182 150 143 150 148 144 130 129
132 134 131 135 138 140 141 141 140 140 141 140 140 142 144 149 150 145 135 132 137 146 151 163 186 212 200 204 223 236 121 156 177 193 152 153 157 151 164 144 147 142 140
136 136 143 142 140 137 138 139 140 144 148 150 150 149 156 158 153 144 151 156 157 160 165 201 250 253 248 244 247 233 188 186 146 178 185 183 162 166 158 159 158 157 151
137 135 142 149 147 145 141 143 147 154 160 163 163 161 168 164 162 169 175 180 186 188 220 243 263 268 264 267 266 254 212 202 177 191 167 169 167 177 174 175 167 169 167
133 138 142 149 151 152 152 151 160 165 168 170 172 178 176 168 174 191 214 218 222 222 248 260 265 261 265 266 263 260 252 229 200 191 199 180 179 184 177 182 175 177 174
152 155 157 162 155 159 164 173 172 173 176 177 180 187 183 167 183 184 261 266 263 239 250 257 263 265 257 271 262 267 267 272 238 218 201 190 184 192 187 185 189 180 185
167 174 168 167 168 170 175 183 187 184 187 189 191 196 186 175 213 248 219 219 234 243 224 239 248 265 271 287 310 324 282 263 242 217 217 194 192 193 194 192 194 187 191
177 174 176 172 176 175 181 184 189 193 193 205 204 199 191 181 159 158 170 152 273 274 233 240 242 258 268 279 287 300 302 294 254 223 213 191 193 198 199 199 198 198 197
167 174 170 170 176 198 170 188 196 199 206 210 215 214 194 191 194 184 188 178 54 109 137 191 261 272 312 287 285 300 298 287 271 231 212 216 209 205 205 203 203 205 204
174 180 167 174 187 191 176 189 200 207 206 213 217 215 199 194 193 189 184 201 141 163 296 271 299 335 316 311 309 315 304 289 279 270 228 227 213 207 213 206 207 209 208
171 179 170 173 180 176 173 192 195 208 213 217 208 214 201 198 191 201 198 213 240 203 245 275 292 296 301 309 303 309 300 304 273 260 252 241 218 217 216 212 211 213 212
175 171 173 168 169 177 180 180 174 149 152 166 191 196 183 201 200 201 205 226 250 274 280 292 305 323 329 329 310 309 305 304 312 259 261 249 239 221 225 220 215 216 218
160 172 174 181 175 173 175 167 164 180 168 182 196 207 210 209 213 202 193 256 261 271 267 276 303 309 297 290 289 290 287 289 290 279 267 247 239 223 227 228 222 218 220
166 175 182 179 173 174 176 166 174 192 205 213 206 209 262 260 219 186 208 218 250 245 258 247 279 245 292 302 295 271 276 274 271 279 280 272 247 235 218 227 226 226 223
174 174 176 168 174 173 164 167 188 202 227 226 226 233 194 121 159 171 208 237 209 189 220 231 237 246 240 268 286 287 277 265 251 251 262 274 263 234 221 222 231 228 230
168 165 171 169 171 158 163 169 179 200 212 241 240 227 214 174 155 156 161 183 204 221 239 242 236 233 283 239 307 313 294 275 299 266 256 271 268 251 229 231 230 236 237
174 176 175 174 166 177 171 164 163 178 217 204 217 202 173 161 162 175 198 223 231 244 314 284 214 234 246 253 241 283 336 331 345 333 334 306 298 305 295 259 243 246 248
178 173 178 175 171 178 177 158 182 104 38 40 243 143 163 156 174 164 168 189 198 152 121 133 136 173 236 310 177 175 349 303 317 334 337 352 359 353 312 301 284 263 264
185 177 173 175 176 187 178 176 175 180 189 211 157 155 168 178 189 193 202 177 143 126 129 225 172 155 125 331 360 124 188 201 299 325 316 325 348 326 314 303 286 265 252
178 182 179 179 183 188 178 181 154 160 178 166 135 147 176 220 244 217 168 150 149 137 202 223 330 351 162 155 170 339 351 315 159 218 300 315 319 299 295 302 289 275 275
184 183 181 180 189 169 161 158 158 167 170 136 147 171 206 96 59 141 141 153 154 144 206 246 251 225 216 193 153 159 165 189 284 254 266 292 286 305 297 295 292 293 288